Time,TemperatureF,DewpointF,PressureIn,WindDirection,WindDirectionDegrees,WindSpeedMPH,WindSpeedGustMPH,Humidity,HourlyPrecipIn,Conditions,Clouds,dailyrainin,SolarRadiationWatts/m^2,SoftwareType,DateUTC
2013-05-27 00:01:00,47.0,31.0,-100.00,NE,50,3.0,5.0,53,0.00,,,0.00,0.000000,,2013-05-27 04:01:00,
2013-05-27 00:23:00,47.0,31.0,-100.00,NE,50,3.0,5.0,53,0.00,,,0.00,0.000000,,2013-05-27 04:23:00,
2013-05-27 00:33:00,47.0,31.0,-100.00,NE,50,3.0,5.0,53,0.00,,,0.00,0.000000,,2013-05-27 04:33:00,
2013-05-27 00:43:00,47.0,31.0,-100.00,NE,50,3.0,5.0,53,0.00,,,0.00,0.000000,,2013-05-27 04:43:00,
2013-05-27 00:53:00,47.0,31.0,-100.00,NE,50,3.0,5.0,53,0.00,,,0.00,0.000000,,2013-05-27 04:53:00,
2013-05-27 01:01:00,46.0,29.0,-100.00,NE,40,2.0,4.0,52,0.00,,,0.00,0.000000,,2013-05-27 05:01:00,
2013-05-27 01:22:00,46.0,29.0,-100.00,NE,40,2.0,4.0,52,0.00,,,0.00,0.000000,,2013-05-27 05:22:00,
2013-05-27 01:32:00,46.0,29.0,-100.00,NE,40,2.0,4.0,52,0.00,,,0.00,0.000000,,2013-05-27 05:32:00,
2013-05-27 01:42:00,46.0,29.0,-100.00,NE,40,2.0,4.0,52,0.00,,,0.00,0.000000,,2013-05-27 05:42:00,
2013-05-27 01:52:00,46.0,29.0,-100.00,NE,40,2.0,4.0,52,0.00,,,0.00,0.000000,,2013-05-27 05:52:00,
2013-05-27 02:01:00,44.0,29.0,-100.00,NE,35,2.0,3.0,56,0.00,,,0.00,0.000000,,2013-05-27 06:01:00,
2013-05-27 02:22:00,44.0,29.0,-100.00,NE,35,2.0,3.0,56,0.00,,,0.00,0.000000,,2013-05-27 06:22:00,
2013-05-27 02:32:00,44.0,29.0,-100.00,NE,35,2.0,3.0,56,0.00,,,0.00,0.000000,,2013-05-27 06:32:00,
2013-05-27 02:42:00,44.0,29.0,-100.00,NE,35,2.0,3.0,56,0.00,,,0.00,0.000000,,2013-05-27 06:42:00,
2013-05-27 02:52:00,44.0,29.0,-100.00,NE,35,2.0,3.0,56,0.00,,,0.00,0.000000,,2013-05-27 06:52:00,
2013-05-27 03:01:00,42.0,30.0,-100.00,NNE,33,3.0,4.0,61,0.00,,,0.00,0.000000,,2013-05-27 07:01:00,
2013-05-27 03:21:00,42.0,30.0,-100.00,NNE,33,3.0,4.0,61,0.00,,,0.00,0.000000,,2013-05-27 07:21:00,
2013-05-27 03:32:00,42.0,30.0,-100.00,NNE,33,3.0,4.0,61,0.00,,,0.00,0.000000,,2013-05-27 07:32:00,
2013-05-27 03:42:00,42.0,30.0,-100.00,NNE,33,3.0,4.0,61,0.00,,,0.00,0.000000,,2013-05-27 07:42:00,
2013-05-27 03:53:00,42.0,30.0,-100.00,NNE,33,3.0,4.0,61,0.00,,,0.00,0.000000,,2013-05-27 07:53:00,
2013-05-27 04:01:00,42.0,30.0,-100.00,NE,45,3.0,4.0,62,0.00,,,0.00,0.000000,,2013-05-27 08:01:00,
2013-05-27 04:22:00,42.0,30.0,-100.00,NE,45,3.0,4.0,62,0.00,,,0.00,0.000000,,2013-05-27 08:22:00,
2013-05-27 04:33:00,42.0,30.0,-100.00,NE,45,3.0,4.0,62,0.00,,,0.00,0.000000,,2013-05-27 08:33:00,
2013-05-27 04:42:00,42.0,30.0,-100.00,NE,45,3.0,4.0,62,0.00,,,0.00,0.000000,,2013-05-27 08:42:00,
2013-05-27 04:52:00,42.0,30.0,-100.00,NE,45,3.0,4.0,62,0.00,,,0.00,0.000000,,2013-05-27 08:52:00,
2013-05-27 05:01:00,41.0,29.0,-100.00,NE,49,2.0,4.0,62,0.00,,,0.00,0.000000,,2013-05-27 09:01:00,
2013-05-27 05:22:00,41.0,29.0,-100.00,NE,49,2.0,4.0,62,0.00,,,0.00,0.000000,,2013-05-27 09:22:00,
2013-05-27 05:33:00,41.0,29.0,-100.00,NE,49,2.0,4.0,62,0.00,,,0.00,0.000000,,2013-05-27 09:33:00,
2013-05-27 05:42:00,41.0,29.0,-100.00,NE,49,2.0,4.0,62,0.00,,,0.00,0.000000,,2013-05-27 09:42:00,
2013-05-27 05:53:00,41.0,29.0,-100.00,NE,49,2.0,4.0,62,0.00,,,0.00,0.000000,,2013-05-27 09:53:00,
2013-05-27 06:01:00,41.0,28.0,-100.00,NE,45,3.0,4.0,60,0.00,,,0.00,1.000000,,2013-05-27 10:01:00,
2013-05-27 06:23:00,41.0,28.0,-100.00,NE,45,3.0,4.0,60,0.00,,,0.00,1.000000,,2013-05-27 10:23:00,
2013-05-27 06:32:00,41.0,28.0,-100.00,NE,45,3.0,4.0,60,0.00,,,0.00,1.000000,,2013-05-27 10:32:00,
2013-05-27 06:42:00,41.0,28.0,-100.00,NE,45,3.0,4.0,60,0.00,,,0.00,1.000000,,2013-05-27 10:42:00,
2013-05-27 06:53:00,41.0,28.0,-100.00,NE,45,3.0,4.0,60,0.00,,,0.00,1.000000,,2013-05-27 10:53:00,
2013-05-27 07:01:00,42.0,31.0,-100.00,NE,41,2.0,4.0,66,0.00,,,0.00,33.000000,,2013-05-27 11:01:00,
2013-05-27 07:22:00,42.0,31.0,-100.00,NE,41,2.0,4.0,66,0.00,,,0.00,33.000000,,2013-05-27 11:22:00,
2013-05-27 07:32:00,42.0,31.0,-100.00,NE,41,2.0,4.0,66,0.00,,,0.00,33.000000,,2013-05-27 11:32:00,
2013-05-27 07:42:00,42.0,31.0,-100.00,NE,41,2.0,4.0,66,0.00,,,0.00,33.000000,,2013-05-27 11:42:00,
2013-05-27 07:52:00,42.0,31.0,-100.00,NE,41,2.0,4.0,66,0.00,,,0.00,33.000000,,2013-05-27 11:52:00,
2013-05-27 08:01:00,45.0,35.0,-100.00,NE,42,2.0,3.0,68,0.00,,,0.00,140.000000,,2013-05-27 12:01:00,
2013-05-27 08:22:00,45.0,35.0,-100.00,NE,42,2.0,3.0,68,0.00,,,0.00,140.000000,,2013-05-27 12:22:00,
2013-05-27 08:32:00,45.0,35.0,-100.00,NE,42,2.0,3.0,68,0.00,,,0.00,140.000000,,2013-05-27 12:32:00,
2013-05-27 08:42:00,45.0,35.0,-100.00,NE,42,2.0,3.0,68,0.00,,,0.00,140.000000,,2013-05-27 12:42:00,
2013-05-27 08:52:00,45.0,35.0,-100.00,NE,42,2.0,3.0,68,0.00,,,0.00,140.000000,,2013-05-27 12:52:00,
2013-05-27 09:01:00,52.0,38.0,-100.00,SE,124,3.0,4.0,59,0.00,,,0.00,315.000000,,2013-05-27 13:01:00,
2013-05-27 09:22:00,52.0,38.0,-100.00,SE,124,3.0,4.0,59,0.00,,,0.00,315.000000,,2013-05-27 13:22:00,
2013-05-27 09:32:00,52.0,38.0,-100.00,SE,124,3.0,4.0,59,0.00,,,0.00,315.000000,,2013-05-27 13:32:00,
2013-05-27 09:42:00,52.0,38.0,-100.00,SE,124,3.0,4.0,59,0.00,,,0.00,315.000000,,2013-05-27 13:42:00,
2013-05-27 09:53:00,52.0,38.0,-100.00,SE,124,3.0,4.0,59,0.00,,,0.00,315.000000,,2013-05-27 13:53:00,
2013-05-27 10:01:00,53.0,38.0,-100.00,NNE,19,2.0,4.0,57,0.00,,,0.00,365.000000,,2013-05-27 14:01:00,
2013-05-27 10:22:00,53.0,38.0,-100.00,NNE,19,2.0,4.0,57,0.00,,,0.00,365.000000,,2013-05-27 14:22:00,
2013-05-27 10:32:00,53.0,38.0,-100.00,NNE,19,2.0,4.0,57,0.00,,,0.00,365.000000,,2013-05-27 14:32:00,
2013-05-27 10:42:00,53.0,38.0,-100.00,NNE,19,2.0,4.0,57,0.00,,,0.00,365.000000,,2013-05-27 14:42:00,
2013-05-27 10:52:00,53.0,38.0,-100.00,NNE,19,2.0,4.0,57,0.00,,,0.00,365.000000,,2013-05-27 14:52:00,
2013-05-27 11:01:00,53.0,32.0,-100.00,SSW,203,2.0,4.0,44,0.00,,,0.00,237.000000,,2013-05-27 15:01:00,
2013-05-27 11:22:00,53.0,32.0,-100.00,SSW,203,2.0,4.0,44,0.00,,,0.00,237.000000,,2013-05-27 15:22:00,
2013-05-27 11:33:00,53.0,32.0,-100.00,SSW,203,2.0,4.0,44,0.00,,,0.00,237.000000,,2013-05-27 15:33:00,
2013-05-27 11:43:00,53.0,32.0,-100.00,SSW,203,2.0,4.0,44,0.00,,,0.00,237.000000,,2013-05-27 15:43:00,
2013-05-27 11:53:00,53.0,32.0,-100.00,SSW,203,2.0,4.0,44,0.00,,,0.00,237.000000,,2013-05-27 15:53:00,
2013-05-27 12:01:00,55.0,35.0,-100.00,WSW,237,4.0,7.0,46,0.00,,,0.00,329.000000,,2013-05-27 16:01:00,
2013-05-27 12:23:00,55.0,35.0,-100.00,WSW,237,4.0,7.0,46,0.00,,,0.00,329.000000,,2013-05-27 16:23:00,
2013-05-27 12:33:00,55.0,35.0,-100.00,WSW,237,4.0,7.0,46,0.00,,,0.00,329.000000,,2013-05-27 16:33:00,
2013-05-27 12:42:00,55.0,35.0,-100.00,WSW,237,4.0,7.0,46,0.00,,,0.00,329.000000,,2013-05-27 16:42:00,
2013-05-27 12:53:00,55.0,35.0,-100.00,WSW,237,4.0,7.0,46,0.00,,,0.00,329.000000,,2013-05-27 16:53:00,
2013-05-27 13:01:00,58.0,37.0,-100.00,South,190,3.0,6.0,45,0.00,,,0.00,504.000000,,2013-05-27 17:01:00,
2013-05-27 13:22:00,58.0,37.0,-100.00,South,190,3.0,6.0,45,0.00,,,0.00,504.000000,,2013-05-27 17:22:00,
2013-05-27 13:32:00,58.0,37.0,-100.00,South,190,3.0,6.0,45,0.00,,,0.00,504.000000,,2013-05-27 17:32:00,
2013-05-27 13:43:00,58.0,37.0,-100.00,South,190,3.0,6.0,45,0.00,,,0.00,504.000000,,2013-05-27 17:43:00,
2013-05-27 13:52:00,58.0,37.0,-100.00,South,190,3.0,6.0,45,0.00,,,0.00,504.000000,,2013-05-27 17:52:00,
2013-05-27 14:01:00,62.0,40.0,-100.00,SSW,208,4.0,9.0,44,0.00,,,0.00,651.000000,,2013-05-27 18:01:00,
2013-05-27 14:22:00,62.0,40.0,-100.00,SSW,208,4.0,9.0,44,0.00,,,0.00,651.000000,,2013-05-27 18:22:00,
2013-05-27 14:32:00,62.0,40.0,-100.00,SSW,208,4.0,9.0,44,0.00,,,0.00,651.000000,,2013-05-27 18:32:00,
2013-05-27 14:42:00,62.0,40.0,-100.00,SSW,208,4.0,9.0,44,0.00,,,0.00,651.000000,,2013-05-27 18:42:00,
2013-05-27 14:52:00,62.0,40.0,-100.00,SSW,208,4.0,9.0,44,0.00,,,0.00,651.000000,,2013-05-27 18:52:00,
2013-05-27 15:01:00,62.0,44.0,-100.00,SW,217,2.0,6.0,52,0.00,,,0.00,304.000000,,2013-05-27 19:01:00,
2013-05-27 15:22:00,62.0,44.0,-100.00,SW,217,2.0,6.0,52,0.00,,,0.00,304.000000,,2013-05-27 19:22:00,
2013-05-27 15:32:00,62.0,44.0,-100.00,SW,217,2.0,6.0,52,0.00,,,0.00,304.000000,,2013-05-27 19:32:00,
2013-05-27 15:42:00,62.0,44.0,-100.00,SW,217,2.0,6.0,52,0.00,,,0.00,304.000000,,2013-05-27 19:42:00,
2013-05-27 15:52:00,62.0,44.0,-100.00,SW,217,2.0,6.0,52,0.00,,,0.00,304.000000,,2013-05-27 19:52:00,
2013-05-27 16:01:00,62.0,46.0,-100.00,NW,318,2.0,4.0,56,0.00,,,0.00,298.000000,,2013-05-27 20:01:00,
2013-05-27 16:22:00,62.0,46.0,-100.00,NW,318,2.0,4.0,56,0.00,,,0.00,298.000000,,2013-05-27 20:22:00,
2013-05-27 16:32:00,62.0,46.0,-100.00,NW,318,2.0,4.0,56,0.00,,,0.00,298.000000,,2013-05-27 20:32:00,
2013-05-27 16:42:00,62.0,46.0,-100.00,NW,318,2.0,4.0,56,0.00,,,0.00,298.000000,,2013-05-27 20:42:00,
2013-05-27 16:53:00,62.0,46.0,-100.00,NW,318,2.0,4.0,56,0.00,,,0.00,298.000000,,2013-05-27 20:53:00,
2013-05-27 17:01:00,66.0,46.0,-100.00,SSW,209,3.0,7.0,48,0.00,,,0.00,439.000000,,2013-05-27 21:01:00,
2013-05-27 17:22:00,66.0,46.0,-100.00,SSW,209,3.0,7.0,48,0.00,,,0.00,439.000000,,2013-05-27 21:22:00,
2013-05-27 17:33:00,66.0,46.0,-100.00,SSW,209,3.0,7.0,48,0.00,,,0.00,439.000000,,2013-05-27 21:33:00,
2013-05-27 17:43:00,66.0,46.0,-100.00,SSW,209,3.0,7.0,48,0.00,,,0.00,439.000000,,2013-05-27 21:43:00,
2013-05-27 17:53:00,66.0,46.0,-100.00,SSW,209,3.0,7.0,48,0.00,,,0.00,439.000000,,2013-05-27 21:53:00,
2013-05-27 18:01:00,66.0,47.0,-100.00,South,178,3.0,7.0,51,0.00,,,0.00,502.000000,,2013-05-27 22:01:00,
2013-05-27 18:23:00,66.0,47.0,-100.00,South,178,3.0,7.0,51,0.00,,,0.00,502.000000,,2013-05-27 22:23:00,
2013-05-27 18:33:00,66.0,47.0,-100.00,South,178,3.0,7.0,51,0.00,,,0.00,502.000000,,2013-05-27 22:33:00,
2013-05-27 18:42:00,66.0,47.0,-100.00,South,178,3.0,7.0,51,0.00,,,0.00,502.000000,,2013-05-27 22:42:00,
2013-05-27 18:53:00,66.0,47.0,-100.00,South,178,3.0,7.0,51,0.00,,,0.00,502.000000,,2013-05-27 22:53:00,
2013-05-27 19:01:00,65.0,46.0,-100.00,SSW,195,5.0,9.0,51,0.00,,,0.00,210.000000,,2013-05-27 23:01:00,
2013-05-27 19:22:00,65.0,46.0,-100.00,SSW,195,5.0,9.0,51,0.00,,,0.00,210.000000,,2013-05-27 23:22:00,
2013-05-27 19:32:00,65.0,46.0,-100.00,SSW,195,5.0,9.0,51,0.00,,,0.00,210.000000,,2013-05-27 23:32:00,
2013-05-27 19:42:00,65.0,46.0,-100.00,SSW,195,5.0,9.0,51,0.00,,,0.00,210.000000,,2013-05-27 23:42:00,
2013-05-27 19:52:00,65.0,46.0,-100.00,SSW,195,5.0,9.0,51,0.00,,,0.00,210.000000,,2013-05-27 23:52:00,
2013-05-27 20:01:00,62.0,47.0,-100.00,South,191,4.0,9.0,57,0.00,,,0.00,170.000000,,2013-05-28 00:01:00,
2013-05-27 20:22:00,62.0,47.0,-100.00,South,191,4.0,9.0,57,0.00,,,0.00,170.000000,,2013-05-28 00:22:00,
2013-05-27 20:32:00,62.0,47.0,-100.00,South,191,4.0,9.0,57,0.00,,,0.00,170.000000,,2013-05-28 00:32:00,
2013-05-27 20:42:00,62.0,47.0,-100.00,South,191,4.0,9.0,57,0.00,,,0.00,170.000000,,2013-05-28 00:42:00,
2013-05-27 20:52:00,62.0,47.0,-100.00,South,191,4.0,9.0,57,0.00,,,0.00,170.000000,,2013-05-28 00:52:00,
2013-05-27 21:01:00,59.0,47.0,-100.00,South,182,3.0,7.0,64,0.00,,,0.00,13.000000,,2013-05-28 01:01:00,
2013-05-27 21:22:00,59.0,47.0,-100.00,South,182,3.0,7.0,64,0.00,,,0.00,13.000000,,2013-05-28 01:22:00,
2013-05-27 21:32:00,59.0,47.0,-100.00,South,182,3.0,7.0,64,0.00,,,0.00,13.000000,,2013-05-28 01:32:00,
2013-05-27 21:42:00,59.0,47.0,-100.00,South,182,3.0,7.0,64,0.00,,,0.00,13.000000,,2013-05-28 01:42:00,
2013-05-27 21:52:00,59.0,47.0,-100.00,South,182,3.0,7.0,64,0.00,,,0.00,13.000000,,2013-05-28 01:52:00,
2013-05-27 22:01:00,58.0,47.0,-100.00,SSW,198,4.0,9.0,67,0.00,,,0.00,0.000000,,2013-05-28 02:01:00,
2013-05-27 22:22:00,58.0,47.0,-100.00,SSW,198,4.0,9.0,67,0.00,,,0.00,0.000000,,2013-05-28 02:22:00,
2013-05-27 22:32:00,58.0,47.0,-100.00,SSW,198,4.0,9.0,67,0.00,,,0.00,0.000000,,2013-05-28 02:32:00,
2013-05-27 22:42:00,58.0,47.0,-100.00,SSW,198,4.0,9.0,67,0.00,,,0.00,0.000000,,2013-05-28 02:42:00,
2013-05-27 22:52:00,58.0,47.0,-100.00,SSW,198,4.0,9.0,67,0.00,,,0.00,0.000000,,2013-05-28 02:52:00,
2013-05-27 23:01:00,58.0,47.0,-100.00,South,189,2.0,6.0,68,0.00,,,0.00,0.000000,,2013-05-28 03:01:00,
2013-05-27 23:22:00,58.0,47.0,-100.00,South,189,2.0,6.0,68,0.00,,,0.00,0.000000,,2013-05-28 03:22:00,
2013-05-27 23:33:00,58.0,47.0,-100.00,South,189,2.0,6.0,68,0.00,,,0.00,0.000000,,2013-05-28 03:33:00,
2013-05-27 23:43:00,58.0,47.0,-100.00,South,189,2.0,6.0,68,0.00,,,0.00,0.000000,,2013-05-28 03:43:00,
2013-05-27 23:53:00,58.0,47.0,-100.00,South,189,2.0,6.0,68,0.00,,,0.00,0.000000,,2013-05-28 03:53:00,